KC9SDK Weather Reports


Display with metric or nautical units.
time (UTC)temp
F
wind
direction
speed
MPH
gust
MPH
rain 1hr
in
rain 24hr
in
rain mn
in
humidity
%
barometer
mb
20260906104518 62 124 0.0 0.0 0.00 0.00 0.00 99 1019.8
20260906103014 62 124 0.0 0.0 0.00 0.00 0.00 99 1019.8
20260906101514 62 124 0.0 0.0 0.00 0.00 0.00 99 1020.0
20260906100017 62 124 0.0 0.0 0.00 0.00 0.00 99 1019.8
20260906094512 62 124 0.0 0.0 0.00 0.00 0.00 98 1019.9
20260906093011 62 124 0.0 0.0 0.00 0.00 0.00 98 1019.9
20260906091515 63 124 0.0 0.0 0.00 0.00 0.00 98 1019.9
20260906090008 63 124 0.0 0.0 0.00 0.00 0.00 99 1019.8
20260906084506 63 124 0.0 0.0 0.00 0.00 0.00 98 1019.9
20260906083006 64 124 0.0 0.0 0.00 0.00 0.00 98 1019.8
20260906081505 63 124 0.0 0.0 0.00 0.00 0.00 98 1019.8
20260906080005 63 125 0.0 0.0 0.00 0.00 0.00 98 1019.7
20260906074503 63 125 0.0 0.0 0.00 0.00 0.00 97 1019.6
20260906073003 63 124 0.0 0.0 0.00 0.00 0.00 97 1019.8
20260906071611 64 124 0.0 0.0 0.00 0.00 0.00 97 1019.7
20260906070057 64 124 0.0 0.0 0.00 0.00 0.00 97 1019.9
20260906064556 65 124 0.0 0.0 0.00 0.00 0.00 97 1019.8
20260906063054 65 115 0.0 0.0 0.00 0.00 0.00 97 1019.8
20260906061552 66 191 0.0 0.0 0.00 0.00 0.00 97 1019.7
20260906060122 66 191 0.0 0.0 0.00 0.00 0.00 96 1019.7
20260906054548 67 70 0.0 0.0 0.00 0.00 0.00 96 1019.7
20260906053046 67 71 0.0 0.0 0.00 0.00 0.00 96 1019.6
20260906051545 68 71 0.0 0.0 0.00 0.00 0.00 96 1019.5
20260906050043 68 70 0.0 0.0 0.00 0.00 0.00 95 1019.6
20260906044540 69 69 0.0 0.0 0.00 0.00 0.00 94 1019.8
20260906043040 69 70 0.0 0.0 0.00 0.00 0.00 94 1019.5
20260906041536 70 70 0.0 0.0 0.00 0.00 0.00 94 1019.4
20260906040037 71 109 0.0 1.0 0.00 0.00 0.00 94 1019.3
20260906034535 71 148 0.0 4.0 0.00 0.00 0.00 94 1019.0
20260906033028 71 123 0.0 0.0 0.00 0.00 0.00 95 1018.7
20260906031548 71 125 0.0 0.0 0.00 0.00 0.00 94 1018.8
20260906030026 71 103 0.0 0.0 0.00 0.00 0.00 94 1018.6
20260906024527 71 162 0.0 0.0 0.00 0.00 0.00 94 1018.5
20260906023021 72 56 0.0 0.0 0.00 0.00 0.00 94 1018.3
20260906021522 72 44 0.0 0.0 0.00 0.00 0.00 93 1018.1
20260906020021 72 84 0.0 0.0 0.00 0.00 0.00 93 1017.9
20260906014525 73 40 0.0 1.0 0.00 0.00 0.00 92 1017.7
20260906013019 73 40 0.0 0.0 0.00 0.00 0.00 92 1017.5
20260906011518 73 41 0.0 6.0 0.00 0.00 0.00 92 1017.3
20260906010018 73 57 0.0 1.0 0.00 0.00 0.00 91 1017.3
20260906004517 74 112 0.0 2.0 0.00 0.00 0.00 90 1017.2
20260906003016 75 59 0.0 0.0 0.00 0.00 0.00 89 1017.3
20260906001515 75 49 0.0 3.0 0.00 0.00 0.00 89 1017.5
20260906000015 76 37 0.0 1.0 0.00 0.00 0.00 88 1017.6
20260905234514 76 47 0.0 3.0 0.00 0.00 0.00 88 1017.5
20260905233017 76 34 0.0 0.0 0.00 0.00 0.00 87 1017.3
20260905231514 77 20 0.0 3.0 0.00 0.00 0.00 86 1017.3
20260905230013 77 9 0.0 0.0 0.00 0.00 0.00 84 1017.3
20260905224512 78 348 0.0 0.0 0.00 0.00 0.00 83 1017.5
20260905223011 78 18 0.0 5.0 0.00 0.00 0.00 82 1017.5
20260905221510 79 17 1.0 10.0 0.00 0.00 0.00 81 1017.4
20260905220013 79 349 0.0 9.0 0.00 0.00 0.00 80 1017.3
20260905214509 79 340 0.0 10.0 0.00 0.00 0.00 79 1017.2
20260905213010 79 56 1.0 9.0 0.00 0.00 0.00 77 1017.0
20260905211508 79 12 3.0 13.0 0.00 0.00 0.00 78 1017.4
20260905210007 80 34 1.0 9.0 0.00 0.00 0.00 80 1017.4
20260905204504 79 5 0.0 8.0 0.00 0.00 0.00 83 1017.5
20260905203004 79 30 0.0 10.0 0.00 0.00 0.00 83 1017.4
20260905201502 79 14 0.0 4.0 0.00 0.00 0.00 85 1017.5
20260905200129 79 10 2.0 9.0 0.00 0.00 0.00 84 1017.3
20260905194601 79 70 3.0 14.0 0.00 0.00 0.00 85 1017.2
20260905193059 79 9 6.0 14.0 0.00 0.00 0.00 83 1017.3
20260905191558 79 46 0.0 11.0 0.00 0.00 0.00 84 1017.3
20260905190057 78 355 0.0 0.0 0.00 0.00 0.00 86 1017.3
20260905184552 77 13 0.0 0.0 0.00 0.00 0.00 89 1017.5
20260905183048 76 18 0.0 0.0 0.00 0.00 0.00 89 1017.6
20260905181548 76 348 0.0 0.0 0.00 0.00 0.00 90 1017.9
20260905180100 75 336 0.0 0.0 0.00 0.00 0.00 92 1017.8
20260905174539 75 37 0.0 0.0 0.00 0.00 0.00 93 1017.8
20260905173046 74 51 1.0 6.0 0.00 0.00 0.00 93 1018.1
20260905171547 73 56 1.0 3.0 0.00 0.00 0.00 94 1018.1
20260905170028 73 17 0.0 6.0 0.00 0.00 0.00 95 1018.1
20260905164526 73 34 0.0 0.0 0.00 0.00 0.00 95 1018.2
20260905163022 73 65 0.0 0.0 0.00 0.00 0.00 96 1018.3
20260905161524 73 5 0.0 7.0 0.00 0.00 0.00 96 1018.2
20260905160013 73 23 0.0 1.0 0.00 0.00 0.00 97 1018.0
20260905154509 72 68 1.0 5.0 0.00 0.00 0.00 98 1017.9
20260905153008 72 24 1.0 8.0 0.00 0.00 0.00 99 1018.0
20260905151503 73 58 0.0 0.0 0.00 0.00 0.00 100 1017.8
20260905150058 73 41 0.0 0.0 0.00 0.00 0.00 100 1017.6
20260905144554 72 27 0.0 0.0 0.00 0.00 0.00 100 1017.4
20260905143052 72 36 0.0 0.0 0.00 0.00 0.00 100 1017.4
20260905141551 72 40 0.0 9.0 0.00 0.00 0.00 100 1017.1
20260905140058 72 43 0.0 0.0 0.00 0.00 0.00 100 1016.8
20260905134558 72 46 0.0 2.0 0.00 0.00 0.00 100 1016.7
20260905133050 72 49 0.0 0.0 0.00 0.00 0.00 100 1016.6
20260905131547 72 35 0.0 6.0 0.00 0.00 0.00 100 1016.4
20260905130045 72 57 0.0 0.0 0.00 0.00 0.00 100 1016.4
20260905124544 72 45 0.0 0.0 0.00 0.00 0.00 100 1016.3
20260905123036 72 31 0.0 2.0 0.00 0.00 0.00 100 1016.3
20260905121531 72 54 1.0 3.0 0.00 0.00 0.00 100 1016.4
20260905120037 73 46 2.0 10.0 0.00 0.00 0.00 100 1016.1
20260905114522 73 30 0.0 8.0 0.00 0.00 0.00 100 1015.4
20260905113018 73 355 0.0 0.0 0.00 0.00 0.00 100 1015.3
20260905111516 72 355 0.0 0.0 0.00 0.00 0.00 100 1014.7
20260905110017 72 355 0.0 0.0 0.00 0.00 0.00 100 1014.5